O3B PFM

Last updated on Thu Dec 28 2023 00:03:05 GMT+0000 (Coordinated Universal Time)

1 39191U 13031D 23361.34523745 -.00000023 00000+0 00000+0 0 9993 2 39191 0.0426 8.8074 0002639 267.1574 84.0035 5.00116102191508
UTC large
Height (km)
Speed (km/s)
/
Latitude / Longitude
Inclination (degrees)
Orbital Period (minutes)
Azimuth
Elevation
Range (km)
Doppler Factor

Next 0 passes for location: London (51.5072 / 0.1276)

Sorry there are no passes over London.